Regional Weather Roundup
Issued by NWS Charleston, WV

Home | Current Version | Previous Version | Text Only | Print | Product List | Glossary On
Versions: 1 2 3 4 5 6 7 8 9 10 11 12 13 14 15 16 17 18 19 20 21 22 23 24 25 26 27 28 29 30 31 32 33 34 35 36 37 38 39 40 41 42 43 44 45 46 47 48 49 50
000
ASUS41 KRLX 181810
RWRRLX
West Virginia Regional Weather Roundup
National Weather Service Charleston WV
100 PM EST SUN FEB 18 2018

Note: "fair" indicates few or no clouds below 12,000 feet with no
significant weather and/or obstructions to visibility.

WVZ003-181900-
Northern Panhandle of West Virginia

CITY           SKY/WX    TMP DP  RH WIND       PRES   REMARKS
WHEELING       PTSUNNY   36  26  67 VRB3      30.36S
$$

WVZ009-181900-
Northwest West Virginia

CITY           SKY/WX    TMP DP  RH WIND       PRES   REMARKS
PARKERSBURG    CLOUDY    37  27  67 S7        30.42F
$$

WVZ006-181900-
Western West Virginia

CITY           SKY/WX    TMP DP  RH WIND       PRES   REMARKS
HUNTINGTON       N/A     44  30  57 SE8       30.35F
$$

WVZ015-181900-
West Central West Virginia

CITY           SKY/WX    TMP DP  RH WIND       PRES   REMARKS
CHARLESTON     PTSUNNY   44  30  57 VRB3      30.36F
$$

WVZ022-031-181900-
North Central West Virginia

CITY           SKY/WX    TMP DP  RH WIND       PRES   REMARKS
CLARKSBURG     CLOUDY    40  30  67 S9        30.37F
MORGANTOWN     CLOUDY    37  26  64 SW3       30.37F
$$

WVZ025-035-042-045-181900-
Southern West Virginia

CITY           SKY/WX    TMP DP  RH WIND       PRES   REMARKS
BECKLEY          N/A     42  29  59 VRB6      30.32F
LOGAN            N/A     46  30  53 SE5       30.33F
BLUEFIELD        N/A     42  25  50 VRB5      30.31F
LEWISBURG        N/A     41  27  59 CALM      30.35F
$$

WVZ047-181900-
Northern Mountains of West Virginia

CITY           SKY/WX    TMP DP  RH WIND       PRES   REMARKS
ELKINS         CLOUDY    38  27  64 S3        30.36S
$$

WVZ052-181900-
Eastern Panhandle of West Virginia

CITY           SKY/WX    TMP DP  RH WIND       PRES   REMARKS
MARTINSBURG    PTSUNNY   47  31  53 W6        30.39S
PETERSBURG     PTSUNNY   45  28  50 E6        30.38S
$$



USA.gov is the U.S. government's official web portal to all federal, state and local government web resources and services.